Weather in Myshkin

Russia / Yaroslavl Oblast     57°47′13″N   38°27′19″E
temp.,
°C
wind,
m/s
gust,
m/s
humid.,
%
clouds,
%
prec.,
mm/h
press.,
hPa
HPBL,
m
13 june, sun
sun1300:00+14sse249748 0.2 100679
03:00+13ssw229775 0.2 100624
06:00+15s1295100 0.0 1006107
09:00+18s238660 0.9 1006379
12:00+21ssw246812 1.5 10061160
15:00+23wsw34551 2.8 10061445
18:00+23w23580 0.0 1006679
21:00+17sse11815 0.3 100711
14 june, mon
mon1400:00+15ssw11919 0.1 100811
03:00+14ssw229345 0.1 100923
06:00+16sw2589100 0.0 1011114
09:00+20wsw247361 0.0 1012301
12:00+24wsw33515 0.4 10131318
15:00+25wsw455127 0.4 10131677
18:00+20w4688100 1.8 1014240
21:00+16nw119429 6.8 101412
15 june, tue
tue1500:00+15nnw119518 0.0 101511
03:00+14ne11955 0.0 101511
06:00+16se00931 0.0 101581
09:00+21sw12710 0.0 1014532
12:00+24w23583 0.0 10121212
15:00+25wsw356010 0.2 10111300
18:00+24wsw24678 0.4 1009733
21:00+18w228858 2.5 101025
16 june, wed
wed1600:00+18w128893 0.0 100914
03:00+17wnw2492100 0.0 101096
06:00+15nnw4990100 0.0 1011285
09:00+17nnw4878100 0.0 1012584
12:00+16nnw487199 0.0 1014555
15:00+22n574213 0.0 10142481
18:00+20n48441 0.0 10151559
21:00+14nnw23645 0.0 101755
17 june, thu
thu1700:00+12nnw4126325 0.0 1019304
03:00+10nnw39725 0.0 1021163
06:00+12nnw37713 0.0 1022214
09:00+18nnw34500 0.0 1023681
12:00+21n45390 0.0 10241515
15:00+22n45360 0.0 10241572
18:00+22nne244743 0.0 10241100
21:00+16sw226290 0.0 102411